Regional Weather Roundup
Issued by NWS Albany, NY

Home | Current Version | Previous Version | Text Only | Print | Product List | Glossary On
Versions: 1 2 3 4 5 6 7 8 9 10 11 12 13 14 15 16 17 18 19 20 21 22 23 24 25 26 27 28 29 30 31 32 33 34 35 36 37 38 39 40 41 42 43 44 45 46 47 48 49
000
ASUS41 KALY 062310
RWRALY

NEW YORK STATE HOURLY WEATHER ROUNDUP
NATIONAL WEATHER SERVICE ALBANY NY
600 PM EST SAT FEB 06 2016

NOTE: "FAIR" INDICATES FEW OR NO CLOUDS BELOW 12,000 FEET WITH NO
SIGNIFICANT WEATHER AND/OR NO OBSTRUCTIONS TO VISIBILITY.

NYZ032-033-038>043-046>054-057>066-NYZ062>081-070000-
EAST


CITY           SKY/WX    TMP DP  RH WIND       PRES   REMARKS
ALBANY         MOCLDY    40  17  39 VRB3      30.20R
GLENS FALLS    CLEAR     37  18  46 SW5       30.18R WCI  33
POUGHKEEPSIE   CLEAR     39  16  39 S6        30.24R WCI  35
NEWBURGH       CLEAR     37  19  48 VRB5      30.24R WCI  34
MONTGOMERY     CLEAR     36  20  52 S8        30.23R WCI  30
WHITE PLAINS   CLEAR     34  19  54 CALM      30.26S
ISLIP          CLOUDY    36  25  64 SW7       30.28S WCI  30
NEW YORK CITY  MOCLDY    40  18  41 SW7       30.29S
CENTRAL PARK   PTCLDY    39  17  41 VRB6G17   30.30S WCI  35
$$

NYZ005>009-017-018-044>046-055-056-070000-
CENTRAL


CITY           SKY/WX    TMP DP  RH WIND       PRES   REMARKS
FULTON         CLEAR     35  22  58 CALM      30.17S
SYRACUSE       PTCLDY    31  21  66 CALM      30.17S
ROME           CLEAR     32  21  64 W3        30.19R
ELMIRA         PTCLDY    38  19  46 CALM      30.16R
BINGHAMTON     CLOUDY    34  18  52 SW7       30.13S WCI  28
MONTICELLO     PTCLDY    34  18  51 SW8       30.19S WCI  27
$$

NYZ026>034-041>043-070000-
NORTH


CITY           SKY/WX    TMP DP  RH WIND       PRES   REMARKS
WATERTOWN      CLOUDY    35  27  72 SW14G23   30.14S WCI  26
FORT DRUM      NOT AVBL
MASSENA        CLOUDY    33  24  69 SW12      30.09S WCI  24
SARANAC LAKE   CLOUDY    28  23  81 SW10      30.04S WCI  19
PLATTSBURGH    MOCLDY    36  22  56 SW6       30.11S WCI  31
$$

NYZ001>004-010>016-019>021-070000-
WEST


CITY           SKY/WX    TMP DP  RH WIND       PRES   REMARKS
NIAGARA FALLS  PTCLDY    33  21  61 SW15      30.16S WCI  23
BUFFALO        PTCLDY    32  25  75 SW15      30.17S WCI  22
DUNKIRK        CLEAR     31  23  72 SW7       30.20S WCI  24
JAMESTOWN      CLEAR     30  18  59 SW6       30.14S WCI  24
WELLSVILLE     CLEAR     33  15  47 W7        30.13S WCI  27
ROCHESTER      PTCLDY    34  22  61 W10       30.17S WCI  26
PENN YAN       MOCLDY    36  19  50 W3        30.16R
$$

             KEY
       WCI = WIND CHILL INDEX
       VSB = VISIBILITY
       HX  = HEAT INDEX
$$



USA.gov is the U.S. government's official web portal to all federal, state and local government web resources and services.